#timestamp,LO_Frequency,Hit 
1498802415.6,286046996.2,N
1498802435.4,286046993.4,N
1498802455.2,286046997.2,N
1498802475.1,286046999.6,N
1498802476.0,286046999.6,N
1498802495.8,286046996.8,N
1498802515.6,286046998.1,N
1498802535.5,286046998.4,N
1498802555.3,286046997.7,N
1498802575.1,286046997.9,N
1498802595.9,286046992.8,N
1498802615.7,286046990.9,N
1498802635.5,286046987.5,N
1498802655.4,286046988.2,N
1498802675.2,286046991.4,N
1498802695.0,286046995.5,N
1498802695.9,286046995.5,N
1498802715.8,286046995.0,N
1498802735.6,286046993.7,N
1498802755.4,286046997.5,N
1498802775.2,286046993.2,N
1498802795.1,286046991.1,N
1498802796.0,286046991.1,N
1498802815.8,286046983.9,N
1498802835.6,286046983.4,N
1498802855.5,286046981.4,N
1498802875.3,286046982.6,N
1498802895.1,286046989.5,N
1498802915.9,286046998.9,N
1498802935.7,286047000.3,N
1498802955.5,286047000.1,N
1498802975.4,286047000.5,N
1498802995.2,286047000.6,N
1498803015.0,286046998.2,N
1498803015.9,286046998.2,N
1498803035.8,286047000.0,N
1498803055.6,286046998.5,N
1498803075.4,286046998.5,N
1498803095.2,286047001.9,N
1498803115.1,286047002.8,N
1498803116.0,286047002.8,N
1498803135.8,286046999.2,N
1498803155.6,286046990.3,N
1498803175.5,286046989.8,N
1498803195.3,286046985.7,N
1498803215.1,286046982.3,N
1498803235.9,286046983.0,N
1498803255.7,286046982.4,N
1498803275.5,286046987.6,N
1498803295.4,286046988.8,N
1498803315.2,286046989.9,N
1498803335.0,286046992.6,N
1498803335.9,286046992.6,N
1498803355.8,286046992.1,N
1498803375.6,286046997.5,N
1498803395.4,286046997.8,N
1498803415.3,286046992.9,N
1498803435.1,286046988.8,N
1498803436.0,286046988.8,N
1498803455.8,286046988.2,N
1498803475.6,286046989.8,N
1498803495.5,286046999.7,N
1498803515.3,286047006.1,N
1498803535.1,286047011.6,N
1498803555.9,286047013.3,N
1498803575.4,286047013.7,N
1498803595.2,286047006.5,N
1498803615.0,286046999.7,N
1498803615.9,286046999.7,N
1498803635.8,286046996.4,N
1498803655.6,286046996.0,N
1498803675.4,286046998.8,N
1498803695.3,286046998.9,N
1498803715.1,286046997.9,N
1498803716.0,286046997.9,N
1498803735.8,286046995.4,N
1498803755.7,286046998.6,N
1498803775.5,286047005.4,N
1498803795.3,286047003.4,N
1498803815.1,286047004.4,N
1498803835.9,286046996.5,N
1498803855.7,286046998.2,N
1498803875.5,286046998.3,N
1498803895.4,286046996.2,N
1498803915.2,286046995.1,N
1498803935.0,286046993.1,N
1498803935.9,286046993.1,N
1498803955.8,286046995.5,N
1498803975.6,286046996.5,N
1498803995.4,286047002.1,N
1498804015.3,286047007.0,N
1498804035.1,286047004.9,N
1498804036.0,286047004.9,N
1498804055.8,286047002.6,N
1498804075.7,286046996.9,N
1498804095.5,286046992.0,N
1498804115.3,286046987.3,N
1498804135.2,286046985.6,N
1498804155.9,286046983.8,N
1498804175.7,286046982.5,N
1498804195.5,286046982.1,N
1498804215.4,286046979.8,N
1498804235.2,286046980.4,N
1498804255.0,286046978.5,N
1498804255.9,286046978.5,N
1498804275.8,286046980.8,N
1498804295.6,286046987.0,N
1498804315.4,286046992.6,N
1498804335.3,286046997.9,N
1498804355.1,286047000.8,N
1498804375.8,286046995.7,N
1498804395.7,286046997.1,N
1498804415.5,286046992.2,N
1498804435.3,286046995.2,N
1498804455.2,286046998.5,N
1498804475.9,286047001.5,N
1498804495.7,286047003.7,N
1498804515.6,286047001.1,N
1498804535.4,286047005.7,N
1498804555.2,286047000.9,N
1498804575.0,286046997.4,N
1498804575.9,286046997.4,N
1498804595.8,286046994.2,N
1498804615.6,286046991.5,N
1498804635.4,286046988.7,N
1498804655.3,286046987.7,N
1498804675.1,286046983.9,N
1498804695.8,286046985.0,N
1498804715.7,286046983.5,N
1498804735.5,286046982.3,N
1498804755.3,286046984.0,N
1498804775.2,286046991.9,N
1498804795.9,286047000.6,N
1498804815.7,286046996.8,N
1498804835.6,286046991.4,N
1498804855.4,286046989.5,N
1498804875.2,286046985.3,N
1498804895.0,286046988.4,N
1498804896.0,286046988.4,N
1498804915.8,286046988.1,N
1498804935.6,286046991.3,N
1498804955.4,286046990.8,N
1498804975.3,286046991.0,N
1498804995.1,286046987.1,N
1498805015.8,286046985.4,N
1498805035.7,286046986.5,N
1498805055.5,286046988.4,N
1498805075.3,286046984.4,N
1498805095.2,286046985.1,N
1498805115.9,286046991.6,N
1498805135.7,286046990.7,N
1498805155.6,286046986.7,N
1498805175.4,286046984.5,N
1498805195.2,286046980.5,N
1498805215.0,286046980.7,N
1498805215.9,286046980.7,N
1498805235.8,286046981.2,N
1498805255.6,286046980.8,N
1498805275.4,286046981.9,N
1498805295.3,286046982.4,N
1498805315.1,286046980.8,N
1498805335.8,286046982.0,N
1498805355.7,286046986.3,N
1498805375.5,286046986.8,N
1498805395.3,286046986.7,N
1498805415.2,286046986.3,N
1498805435.9,286046986.0,N
1498805455.7,286046986.1,N
1498805475.6,286046987.9,N
1498805495.4,286046987.3,N
1498805515.2,286046996.4,N
1498805535.0,286047004.3,N
1498805535.9,286047004.3,N
1498805555.8,286047003.0,N
1498805575.6,286047005.3,N
1498805595.4,286047002.2,N
1498805615.3,286046998.6,N
1498805635.1,286046998.9,N
1498805655.8,286046999.9,N
1498805675.7,286047003.1,N
1498805695.5,286047004.2,N
1498805715.3,286047001.6,N
1498805735.2,286047005.7,N
1498805755.9,286047005.0,N
1498805775.7,286047005.7,N
1498805795.6,286047002.3,N
1498805815.4,286047003.7,N
1498805835.2,286046999.6,N
1498805855.0,286046995.4,N
1498805855.9,286046995.4,N
1498805875.8,286046993.0,N
1498805895.6,286046983.9,N
1498805915.4,286046983.8,N
1498805935.3,286046980.8,N
1498805955.1,286046980.9,N
1498805975.8,286046984.4,N
1498805995.7,286046987.9,N
